Retour au catalogue

FOURIER

ActifScienceSSO
NORAD 65298·PAYLOAD·🇷🇼 Rwanda

Lancé Aug 23, 2025 depuis Rocket Lab Launch Complex 1

Loading…

Prochains Passages (prochaines 24 heures)

TLE

FraisSource: Space-Track

Époque: Sep 13, 2026, 20:07 UTC

1 65298U 25185B   26256.83886459  .00007005  00000-0  91319-3 0  9991
2 65298  97.9649 339.5118 0015654 153.7350 206.4659 14.80788183 56956

Suivez FOURIER en temps réel avec AllMySat

Download on the App Store